FW8733 Weather Reports


time (UTC)temp
F
wind
direction
speed
knots
gust
knots
rain 1hr
in
rain 24hr
in
rain mn
in
humidity
%
barometer
mb
20260906094216 79 219 0.0 0.0 0.00 0.00 0.00 86 1015.7
20260906093713 79 219 0.0 0.0 0.00 0.00 0.00 86 1015.5
20260906093208 79 219 0.0 0.0 0.00 0.00 0.00 86 1015.5
20260906092703 79 219 0.0 0.0 0.00 0.00 0.00 86 1015.4
20260906092202 79 220 0.0 0.0 0.00 0.00 0.00 86 1015.6
20260906091659 79 219 0.0 0.0 0.00 0.00 0.00 86 1015.6
20260906091155 79 221 0.0 0.0 0.00 0.00 0.00 86 1015.3
20260906090651 79 220 0.0 0.0 0.00 0.00 0.00 85 1015.3
20260906090150 79 230 0.0 0.0 0.00 0.00 0.00 85 1015.4
20260906085649 79 231 0.0 0.0 0.00 0.00 0.00 85 1015.5
20260906085148 80 220 0.0 0.0 0.00 0.00 0.00 84 1015.4
20260906084643 80 222 0.0 0.0 0.00 0.00 0.00 84 1015.3
20260906084143 80 234 0.0 0.0 0.00 0.00 0.00 83 1015.3
20260906083638 80 234 0.0 0.0 0.00 0.00 0.00 82 1015.4
20260906083133 81 221 0.0 0.0 0.00 0.00 0.00 81 1015.5
20260906082628 81 219 0.0 0.0 0.00 0.00 0.00 80 1015.5
20260906082124 81 206 0.0 0.0 0.00 0.00 0.00 80 1015.5
20260906081619 81 221 0.0 0.0 0.00 0.00 0.00 80 1015.6
20260906081115 81 220 0.0 0.0 0.00 0.00 0.00 81 1015.5
20260906080611 81 220 0.0 0.0 0.00 0.00 0.00 80 1015.5
20260906080107 82 220 0.0 0.0 0.00 0.00 0.00 80 1015.7
20260906075601 82 219 0.9 0.9 0.00 0.00 0.00 79 1015.6
20260906075101 82 219 0.0 0.9 0.00 0.00 0.00 79 1015.8
20260906074557 82 229 0.0 0.0 0.00 0.00 0.00 79 1016.0
20260906074055 82 218 0.0 0.0 0.00 0.00 0.00 79 1016.0
20260906073550 82 219 0.9 0.9 0.00 0.00 0.00 78 1016.0
20260906073046 82 232 0.0 0.0 0.00 0.00 0.00 78 1015.9
20260906072541 83 219 0.0 0.0 0.00 0.00 0.00 78 1015.9
20260906072037 83 239 0.9 0.9 0.00 0.00 0.00 77 1016.2
20260906071533 83 212 1.7 2.6 0.00 0.00 0.00 77 1016.2
20260906071028 83 212 0.0 0.0 0.00 0.00 0.00 77 1016.2
20260906070524 83 212 1.7 4.3 0.00 0.00 0.00 77 1016.3
20260906070014 83 216 0.0 0.0 0.00 0.00 0.00 78 1016.5
20260906065513 83 215 0.0 0.0 0.00 0.00 0.00 77 1016.4
20260906065009 83 217 0.0 0.0 0.00 0.00 0.00 77 1016.5
20260906064505 83 197 0.0 0.0 0.00 0.00 0.00 77 1016.4
20260906064000 83 205 0.9 0.9 0.00 0.00 0.00 77 1016.2
20260906063455 83 206 0.9 0.9 0.00 0.00 0.00 76 1016.3
20260906062955 83 217 0.0 0.0 0.00 0.00 0.00 77 1016.3
20260906062450 84 219 0.0 0.0 0.00 0.00 0.00 76 1016.6
20260906061945 84 219 0.9 0.9 0.00 0.00 0.00 75 1016.5
20260906061436 84 203 0.9 1.7 0.00 0.00 0.00 75 1016.6
20260906060935 84 215 0.0 0.0 0.00 0.00 0.00 75 1016.7
20260906060433 84 207 0.9 1.7 0.00 0.00 0.00 75 1016.7
20260906055929 84 215 0.9 0.9 0.00 0.00 0.00 74 1016.8
20260906055425 84 215 1.7 1.7 0.00 0.00 0.00 74 1016.5
20260906054920 84 207 1.7 1.7 0.00 0.00 0.00 74 1016.4
20260906054414 84 207 0.9 1.7 0.00 0.00 0.00 74 1016.4
20260906053911 84 209 0.0 0.0 0.00 0.00 0.00 74 1016.3
20260906053406 84 206 0.0 0.0 0.00 0.00 0.00 73 1016.3
20260906052902 85 205 0.0 0.0 0.00 0.00 0.00 73 1016.5
20260906052358 85 205 1.7 2.6 0.00 0.00 0.00 72 1016.5
20260906051855 84 170 2.6 2.6 0.00 0.00 0.00 73 1016.3
20260906051354 85 203 0.9 0.9 0.00 0.00 0.00 73 1016.6
20260906050850 85 205 0.0 0.0 0.00 0.00 0.00 73 1016.5
20260906050345 85 160 1.7 1.7 0.00 0.00 0.00 72 1016.6
20260906045844 85 192 3.5 4.3 0.00 0.00 0.00 72 1016.6
20260906045338 86 164 2.6 2.6 0.00 0.00 0.00 72 1016.6
20260906044835 86 205 0.9 0.9 0.00 0.00 0.00 71 1016.6
20260906044334 86 208 1.7 1.7 0.00 0.00 0.00 71 1016.4
20260906043830 86 217 1.7 1.7 0.00 0.00 0.00 71 1016.4
20260906043326 86 173 3.5 4.3 0.00 0.00 0.00 71 1017.0
20260906042827 86 204 1.7 1.7 0.00 0.00 0.00 70 1016.5
20260906042325 86 198 6.1 7.8 0.00 0.00 0.00 70 1016.4
20260906041821 86 210 2.6 4.3 0.00 0.00 0.00 69 1016.3
20260906041317 86 205 0.9 1.7 0.00 0.00 0.00 69 1016.3
20260906040811 87 146 4.3 6.1 0.00 0.00 0.00 68 1016.4
20260906040307 87 189 2.6 5.2 0.00 0.00 0.00 68 1016.3
20260906035802 87 111 4.3 8.7 0.00 0.00 0.00 67 1016.4
20260906035257 87 182 4.3 5.2 0.00 0.00 0.00 67 1016.3
20260906034757 87 199 5.2 8.7 0.00 0.00 0.00 66 1016.4
20260906034252 88 233 4.3 5.2 0.00 0.00 0.00 66 1016.3
20260906033748 88 179 4.3 5.2 0.00 0.00 0.00 65 1016.1
20260906033247 88 146 2.6 4.3 0.00 0.00 0.00 64 1016.2
20260906032744 89 136 2.6 5.2 0.00 0.00 0.00 63 1016.1
20260906032244 89 194 4.3 6.1 0.00 0.00 0.00 62 1016.2
20260906031739 89 215 4.3 7.8 0.00 0.00 0.00 62 1016.0
20260906031235 89 174 7.0 12.2 0.00 0.00 0.00 61 1016.0
20260906030735 89 135 3.5 4.3 0.00 0.00 0.00 61 1015.8
20260906030230 89 129 6.1 8.7 0.00 0.00 0.00 61 1015.6
20260906025729 89 214 0.0 0.0 0.00 0.00 0.00 61 1015.7
20260906025224 89 238 0.0 0.0 0.00 0.00 0.00 61 1015.3
20260906024723 89 170 2.6 2.6 0.00 0.00 0.00 60 1015.3
20260906024222 89 207 3.5 5.2 0.00 0.00 0.00 60 1015.2
20260906023718 89 225 2.6 2.6 0.00 0.00 0.00 60 1015.1
20260906023213 89 172 0.9 1.7 0.00 0.00 0.00 60 1014.9
20260906022708 90 130 2.6 4.3 0.00 0.00 0.00 59 1014.7
20260906022204 90 92 3.5 4.3 0.00 0.00 0.00 59 1014.9
20260906021659 90 111 3.5 5.2 0.00 0.00 0.00 58 1014.6
20260906021157 90 216 1.7 2.6 0.00 0.00 0.00 58 1014.6
20260906020653 90 213 2.6 4.3 0.00 0.00 0.00 57 1014.4
20260906020147 91 193 1.7 2.6 0.00 0.00 0.00 57 1014.4
20260906015642 91 176 1.7 1.7 0.00 0.00 0.00 56 1014.5
20260906015140 91 169 2.6 2.6 0.00 0.00 0.00 56 1014.3
20260906014635 91 196 1.7 2.6 0.00 0.00 0.00 55 1014.3
20260906014131 91 172 4.3 5.2 0.00 0.00 0.00 55 1014.2
20260906013626 92 201 2.6 2.6 0.00 0.00 0.00 54 1014.3
20260906013122 92 152 4.3 7.8 0.00 0.00 0.00 54 1014.0
20260906012616 93 150 6.1 7.0 0.00 0.00 0.00 53 1013.9
20260906012116 93 155 3.5 4.3 0.00 0.00 0.00 52 1013.9
20260906011612 93 153 4.3 6.1 0.00 0.00 0.00 50 1013.8
20260906011107 94 196 1.7 1.7 0.00 0.00 0.00 49 1013.6
20260906010602 94 197 3.5 5.2 0.00 0.00 0.00 48 1013.9
20260906010058 94 167 4.3 6.1 0.00 0.00 0.00 47 1013.8
20260906005557 94 193 1.7 2.6 0.00 0.00 0.00 47 1013.6
20260906005057 94 202 1.7 2.6 0.00 0.00 0.00 46 1013.9
20260906004556 94 150 2.6 2.6 0.00 0.00 0.00 46 1013.8
20260906004051 95 205 0.9 0.9 0.00 0.00 0.00 46 1014.0
20260906003546 95 199 2.6 2.6 0.00 0.00 0.00 45 1013.9
20260906003043 95 203 1.7 1.7 0.00 0.00 0.00 45 1013.9
20260906002543 95 155 2.6 2.6 0.00 0.00 0.00 45 1013.8
20260906002037 95 190 3.5 5.2 0.00 0.00 0.00 45 1013.7
20260906001533 95 261 0.9 0.9 0.00 0.00 0.00 44 1013.6
20260906001027 96 158 0.9 1.7 0.00 0.00 0.00 44 1013.5
20260906000523 96 169 2.6 2.6 0.00 0.00 0.00 42 1013.6
20260906000019 96 207 0.9 1.7 0.00 0.00 0.00 42 1013.7
20260905235518 96 229 0.9 0.9 0.00 0.00 0.00 43 1013.7
20260905235013 96 213 0.9 1.7 0.00 0.00 0.00 43 1013.6
20260905234509 96 206 1.7 1.7 0.00 0.00 0.00 42 1013.6
20260905234009 96 204 2.6 4.3 0.00 0.00 0.00 42 1013.5
20260905233504 96 208 0.0 0.0 0.00 0.00 0.00 42 1013.6
20260905233003 97 229 2.6 2.6 0.00 0.00 0.00 41 1013.5
20260905232459 97 159 2.6 2.6 0.00 0.00 0.00 40 1013.5
20260905231954 98 206 0.0 0.0 0.00 0.00 0.00 40 1013.8
20260905231450 99 201 1.7 1.7 0.00 0.00 0.00 39 1013.8
20260905230946 99 208 0.9 1.7 0.00 0.00 0.00 37 1013.8
20260905230444 98 228 0.9 0.9 0.00 0.00 0.00 40 1013.6
20260905225943 98 153 3.5 5.2 0.00 0.00 0.00 39 1013.7
20260905225438 98 195 1.7 2.6 0.00 0.00 0.00 39 1013.6
20260905224933 98 227 0.0 0.9 0.00 0.00 0.00 40 1013.5
20260905224429 96 217 0.9 0.9 0.00 0.00 0.00 41 1013.5
20260905223922 98 247 0.9 1.7 0.00 0.00 0.00 41 1013.7
20260905223421 96 224 0.9 1.7 0.00 0.00 0.00 42 1013.5
20260905222921 96 197 0.9 0.9 0.00 0.00 0.00 43 1013.6
20260905222420 98 222 0.0 0.0 0.00 0.00 0.00 41 1013.8
20260905221916 98 214 0.9 0.9 0.00 0.00 0.00 41 1013.7
20260905221413 100 188 2.6 4.3 0.00 0.00 0.00 39 1013.8
20260905220909 100 230 0.0 0.0 0.00 0.00 0.00 39 1013.8
20260905220404 99 216 0.9 1.7 0.00 0.00 0.00 41 1013.8
20260905215903 98 189 1.7 1.7 0.00 0.00 0.00 40 1013.9
20260905215359 98 162 3.5 4.3 0.00 0.00 0.00 39 1013.9
20260905214855 98 156 3.5 5.2 0.00 0.00 0.00 40 1013.8
20260905214350 98 221 1.7 1.7 0.00 0.00 0.00 40 1014.0
20260905213845 98 204 0.9 0.9 0.00 0.00 0.00 41 1013.9
20260905213342 97 217 0.0 0.9 0.00 0.00 0.00 41 1013.9
20260905212841 95 235 0.9 0.9 0.00 0.00 0.00 44 1013.9
20260905212336 96 165 2.6 4.3 0.00 0.00 0.00 43 1013.9
20260905211836 97 193 1.7 1.7 0.00 0.00 0.00 42 1013.9
20260905211331 99 289 1.7 1.7 0.00 0.00 0.00 41 1014.1
20260905210827 98 192 2.6 2.6 0.00 0.00 0.00 41 1014.1
20260905210322 97 191 0.0 0.9 0.00 0.00 0.00 42 1014.2
20260905205821 96 199 2.6 2.6 0.00 0.00 0.00 43 1014.4
20260905205316 95 197 0.9 0.9 0.00 0.00 0.00 44 1014.1
20260905204815 97 176 1.7 2.6 0.00 0.00 0.00 42 1014.3
20260905204311 98 210 4.3 7.0 0.00 0.00 0.00 41 1014.5
20260905203810 98 147 1.7 1.7 0.00 0.00 0.00 41 1014.6
20260905203306 97 184 4.3 6.1 0.00 0.00 0.00 42 1014.7
20260905202801 96 222 0.0 0.0 0.00 0.00 0.00 43 1014.9
20260905202256 96 172 3.5 4.3 0.00 0.00 0.00 43 1014.7
20260905201751 96 210 0.0 0.0 0.00 0.00 0.00 44 1015.0
20260905201246 97 206 1.7 2.6 0.00 0.00 0.00 42 1014.8
20260905200741 100 257 0.9 0.9 0.00 0.00 0.00 45 1014.9
20260905200237 98 217 0.0 0.9 0.00 0.00 0.00 42 1015.3
20260905195735 96 185 0.0 0.0 0.00 0.00 0.00 42 1015.3
20260905195230 97 201 1.7 1.7 0.00 0.00 0.00 41 1015.3
20260905194726 96 281 0.0 0.9 0.00 0.00 0.00 45 1015.4
20260905194225 96 286 2.6 2.6 0.00 0.00 0.00 47 1015.7
20260905193719 97 162 1.7 1.7 0.00 0.00 0.00 43 1015.8
20260905193214 97 213 4.3 5.2 0.00 0.00 0.00 43 1015.6
20260905192710 97 194 3.5 5.2 0.00 0.00 0.00 43 1015.7
20260905192206 98 255 2.6 2.6 0.00 0.00 0.00 42 1015.7
20260905191706 99 195 0.0 0.9 0.00 0.00 0.00 44 1015.9
20260905191204 98 183 3.5 5.2 0.00 0.00 0.00 43 1015.9
20260905190703 98 223 0.0 0.0 0.00 0.00 0.00 45 1016.1
20260905190201 97 230 0.0 0.0 0.00 0.00 0.00 45 1016.1
20260905185701 96 265 0.0 0.0 0.00 0.00 0.00 48 1016.1
20260905185155 97 196 3.5 4.3 0.00 0.00 0.00 45 1016.3
20260905184655 96 112 5.2 6.1 0.00 0.00 0.00 46 1016.3
20260905184154 96 203 0.9 0.9 0.00 0.00 0.00 45 1016.4
20260905183648 97 164 2.6 2.6 0.00 0.00 0.00 46 1016.5
20260905183143 95 247 0.0 0.9 0.00 0.00 0.00 50 1016.7
20260905182643 94 235 0.0 0.0 0.00 0.00 0.00 51 1016.7
20260905182143 96 159 0.9 1.7 0.00 0.00 0.00 47 1016.8
20260905181638 96 93 1.7 2.6 0.00 0.00 0.00 46 1017.1
20260905181137 96 185 1.7 2.6 0.00 0.00 0.00 48 1017.1
20260905180632 95 155 3.5 5.2 0.00 0.00 0.00 48 1017.3
20260905180127 94 203 0.9 2.6 0.00 0.00 0.00 50 1017.4
20260905175626 96 315 2.6 4.3 0.00 0.00 0.00 50 1017.5
20260905175122 95 225 0.0 0.0 0.00 0.00 0.00 53 1017.4
20260905174617 94 123 2.6 2.6 0.00 0.00 0.00 51 1017.6
20260905174113 93 227 1.7 1.7 0.00 0.00 0.00 54 1017.6
20260905173609 93 212 0.9 0.9 0.00 0.00 0.00 53 1017.7
20260905173104 95 170 1.7 1.7 0.00 0.00 0.00 51 1018.1
20260905172603 96 166 2.6 2.6 0.00 0.00 0.00 51 1017.9
20260905172058 95 133 4.3 5.2 0.00 0.00 0.00 52 1017.8
20260905171554 96 224 1.7 4.3 0.00 0.00 0.00 51 1018.0
20260905171050 94 159 3.5 4.3 0.00 0.00 0.00 51 1017.7
20260905170547 94 199 2.6 4.3 0.00 0.00 0.00 51 1018.2
20260905170042 93 208 0.0 0.9 0.00 0.00 0.00 56 1018.0
20260905165536 93 226 0.0 0.0 0.00 0.00 0.00 57 1018.1
20260905165032 94 176 1.7 2.6 0.00 0.00 0.00 57 1018.3
20260905164526 93 238 2.6 5.2 0.00 0.00 0.00 57 1018.2
20260905164021 93 124 4.3 5.2 0.00 0.00 0.00 56 1018.1
20260905163517 93 218 0.9 0.9 0.00 0.00 0.00 58 1018.3
20260905163013 91 233 0.0 0.0 0.00 0.00 0.00 65 1018.0
20260905162508 91 173 0.9 2.6 0.00 0.00 0.00 65 1018.2
20260905162003 90 195 0.0 0.0 0.00 0.00 0.00 67 1018.4
20260905161503 90 211 0.0 0.9 0.00 0.00 0.00 67 1017.9
20260905161000 91 235 0.0 0.0 0.00 0.00 0.00 67 1018.1
20260905160454 92 213 1.7 2.6 0.00 0.00 0.00 65 1018.2
20260905155954 91 209 0.9 0.9 0.00 0.00 0.00 65 1018.4
20260905155449 90 199 0.9 0.9 0.00 0.00 0.00 67 1018.4
20260905154947 88 199 2.6 2.6 0.00 0.00 0.00 68 1018.2
20260905154443 88 178 3.5 4.3 0.00 0.00 0.00 70 1018.3
20260905153938 88 206 0.9 0.9 0.00 0.00 0.00 71 1018.3
20260905153434 88 270 0.0 0.0 0.00 0.00 0.00 71 1018.2
20260905152933 89 237 0.0 0.9 0.00 0.00 0.00 72 1018.2
20260905152433 89 255 0.0 0.9 0.00 0.00 0.00 72 1018.4
20260905151928 89 213 1.7 1.7 0.00 0.00 0.00 71 1018.4
20260905151424 88 256 0.0 0.0 0.00 0.00 0.00 74 1018.3
20260905150919 88 216 0.0 0.0 0.00 0.00 0.00 73 1018.3
20260905150419 89 197 0.9 1.7 0.00 0.00 0.00 74 1018.4
20260905145915 87 175 0.0 0.0 0.00 0.00 0.00 76 1018.3
20260905145410 87 210 0.9 1.7 0.00 0.00 0.00 76 1018.3
20260905144909 87 207 2.6 2.6 0.00 0.00 0.00 78 1018.2
20260905144405 87 127 1.7 2.6 0.00 0.00 0.00 75 1018.2
20260905143904 87 208 0.0 0.9 0.00 0.00 0.00 77 1018.3
20260905143358 86 206 0.9 0.9 0.00 0.00 0.00 81 1018.2
20260905142857 86 235 0.0 0.0 0.00 0.00 0.00 82 1018.1
20260905142356 86 209 0.0 0.0 0.00 0.00 0.00 81 1018.3
20260905141852 84 208 2.6 2.6 0.00 0.00 0.00 83 1018.3
20260905141347 84 207 0.0 0.0 0.00 0.00 0.00 84 1018.2
20260905140844 84 184 1.7 1.7 0.00 0.00 0.00 85 1018.2
20260905140343 83 205 1.7 1.7 0.00 0.00 0.00 86 1017.9
20260905135842 83 203 1.7 1.7 0.00 0.00 0.00 87 1018.2
20260905135338 81 207 1.7 1.7 0.00 0.00 0.00 90 1017.9
20260905134833 81 170 1.7 2.6 0.00 0.00 0.00 92 1018.0
20260905134326 80 203 0.9 0.9 0.00 0.00 0.00 94 1018.0
20260905133821 80 196 2.6 2.6 0.00 0.00 0.00 94 1018.0
20260905133316 80 201 2.6 4.3 0.00 0.00 0.00 92 1017.9
20260905132815 79 203 2.6 2.6 0.00 0.00 0.00 94 1017.8
20260905132311 79 207 0.9 1.7 0.00 0.00 0.00 95 1017.8
20260905131811 79 203 0.9 0.9 0.00 0.00 0.00 95 1017.7
20260905131306 78 197 1.7 2.6 0.00 0.00 0.00 96 1017.9
20260905130801 78 150 2.6 2.6 0.00 0.00 0.00 98 1017.7
20260905130300 77 188 1.7 1.7 0.00 0.00 0.00 99 1017.5
20260905125755 76 219 0.9 1.7 0.00 0.00 0.00 99 1017.4
20260905125250 76 205 0.0 0.0 0.00 0.00 0.00 99 1017.5
20260905124747 75 223 0.0 0.0 0.00 0.00 0.00 99 1017.4
20260905124243 75 222 0.0 0.0 0.00 0.00 0.00 99 1017.4
20260905123737 75 221 0.0 0.0 0.00 0.00 0.00 99 1017.3
20260905123234 75 222 0.0 0.0 0.00 0.00 0.00 99 1017.6
20260905122729 75 222 0.0 0.0 0.00 0.00 0.00 99 1017.6
20260905122228 75 230 0.0 0.0 0.00 0.00 0.00 99 1017.1
20260905121724 75 230 0.0 0.0 0.00 0.00 0.00 99 1017.3
20260905121220 75 230 0.0 0.0 0.00 0.00 0.00 99 1017.1
20260905120719 75 230 0.0 0.0 0.00 0.00 0.00 99 1017.0
20260905120214 75 230 0.0 0.0 0.00 0.00 0.00 99 1017.3
20260905115714 75 230 0.0 0.0 0.00 0.00 0.00 99 1017.1
20260905115208 75 230 0.0 0.0 0.00 0.00 0.00 99 1017.2
20260905114703 75 230 0.0 0.0 0.00 0.00 0.00 99 1017.1
20260905114201 75 230 0.0 0.0 0.00 0.00 0.00 99 1017.0
20260905113701 75 230 0.0 0.0 0.00 0.00 0.00 99 1017.1
20260905113157 75 230 0.0 0.0 0.00 0.00 0.00 99 1016.6
20260905112656 75 230 0.0 0.0 0.00 0.00 0.00 99 1016.8
20260905112152 76 230 0.0 0.0 0.00 0.00 0.00 99 1016.8
20260905111652 76 230 0.0 0.0 0.00 0.00 0.00 99 1016.7
20260905111151 76 232 0.0 0.0 0.00 0.00 0.00 99 1016.8
20260905110650 76 232 0.0 0.0 0.00 0.00 0.00 99 1016.7
20260905110145 76 232 0.0 0.0 0.00 0.00 0.00 99 1016.7
20260905105641 76 232 0.0 0.0 0.00 0.00 0.00 99 1016.7
20260905105139 76 232 0.0 0.0 0.00 0.00 0.00 99 1016.6
20260905104635 76 232 0.0 0.0 0.00 0.00 0.00 99 1016.5
20260905104130 76 232 0.0 0.0 0.00 0.00 0.00 98 1016.5
20260905103625 76 232 0.0 0.0 0.00 0.00 0.00 98 1016.5
20260905103121 76 232 0.0 0.0 0.00 0.00 0.00 98 1016.8
20260905102617 76 232 0.0 0.0 0.00 0.00 0.00 98 1016.7
20260905102114 76 232 0.0 0.0 0.00 0.00 0.00 98 1016.7
20260905101611 76 232 0.0 0.0 0.00 0.00 0.00 98 1016.6
20260905101110 76 232 0.0 0.0 0.00 0.00 0.00 98 1016.6
20260905100607 76 232 0.0 0.0 0.00 0.00 0.00 97 1016.5
20260905100101 76 232 0.0 0.0 0.00 0.00 0.00 97 1016.6
20260905095555 77 232 0.0 0.0 0.00 0.00 0.00 97 1016.6
20260905095051 77 232 0.0 0.0 0.00 0.00 0.00 97 1016.5
20260905094545 77 232 0.0 0.0 0.00 0.00 0.00 97 1016.5